Погода в Сиболге

Индонезия     1°44′16″N   98°46′51″E
темп.,
°C
ветер,
м/с
пор.,
м/с
влажн.,
%
обл.,
%
осадки,
мм/ч
давл.,
гПа
погр.,
м
2 марта, вт
вт201:00+24св228393 0.3 101275
04:00+24всв228222 0.0 100979
07:00+24всв228011 0.0 101290
10:00+29ю116026 0.0 1013604
13:00+29юз336763 0.6 1011662
16:00+28зюз127674 3.1 1008462
19:00+26ююз018359 4.3 1009203
22:00+25св22867 2.1 101297
3 марта, ср
ср301:00+24св229030 5.6 1011100
04:00+23св228950 3.1 101099
07:00+23св228648 3.1 101177
10:00+29ю116537 0.0 1012526
13:00+29зюз326640 0.2 1009684
16:00+29зюз227077 0.8 1007506
19:00+26юз228488 4.1 1009223
22:00+25св1186100 6.6 101283
4 марта, чт
чт401:00+24св228955 8.3 101170
04:00+23св228674 0.2 101070
07:00+23всв228437 0.4 101183
10:00+30ю126045 0.0 1013618
13:00+29зюз336834 0.3 1010569
16:00+28ююз117356 2.3 1007445
19:00+26ю128230 2.8 1009180
22:00+25св22861 0.5 1011103
5 марта, пт
пт501:00+24св228437 0.6 101166
04:00+24св22820 0.4 101079
07:00+23всв22816 1.2 101185
10:00+29ююз116120 0.0 1013560
13:00+30зюз326520 0.5 1010616
16:00+28юз2271100 0.6 1008671
19:00+26юв1181100 1.4 1009168
22:00+25всв1186100 5.0 1011129
6 марта, сб
сб601:00+25св2289100 7.8 101171
04:00+24всв2389100 6.9 100985
07:00+24св1286100 10.0 101152
10:00+26зсз238497 2.4 1013243
13:00+28з337492 3.3 1011788
16:00+25зсз249096 2.9 1009393
19:00+25с239098 5.7 1011283
22:00+24св2388100 1.1 1012164